• In Deutschland
  • Länderverzeichnis
  • Für 7 Tage
  • Wassertemperatur
  • Satellitenkarten
  • Wetterkarte
  • Widgets
  • user-avatar
    Anmelden

    Stündliche Wetter Güstrow

    Heute, 20 Februar, Dienstag

    Zeit Temperatur Niederschläge Wind Luftdruck Luftfeuchtigkeit
    00:00 -1°C° 0 mm 2 m/S 764 mmHg 85%
    01:00 -1°C° 0 mm 2 m/S 764 mmHg 86%
    02:00 -2°C° 0 mm 2 m/S 764 mmHg 86%
    03:00 -2°C° 0 mm 2 m/S 764 mmHg 86%
    04:00 -2°C° 0 mm 2 m/S 764 mmHg 87%
    05:00 -2°C° 0 mm 2 m/S 764 mmHg 87%
    06:00 -4°C° 0 mm 3 m/S 764 mmHg 87%
    07:00 -4°C° 0 mm 3 m/S 764 mmHg 88%
    08:00 -2°C° 0 mm 3 m/S 764 mmHg 81%
    09:00 -1°C° 0 mm 3 m/S 765 mmHg 75%
    10:00 -1°C° 0 mm 4 m/S 765 mmHg 68%
    11:00 0°C° 0 mm 4 m/S 765 mmHg 65%
    12:00 +1°C° 0 mm 4 m/S 765 mmHg 61%
    13:00 +3°C° 0 mm 4 m/S 765 mmHg 58%
    14:00 +1°C° 0 mm 4 m/S 765 mmHg 60%
    15:00 +1°C° 0 mm 4 m/S 765 mmHg 61%
    16:00 +1°C° 0 mm 4 m/S 766 mmHg 63%
    17:00 0°C° 0 mm 4 m/S 766 mmHg 69%
    18:00 -2°C° 0 mm 4 m/S 766 mmHg 75%
    19:00 -2°C° 0 mm 3 m/S 767 mmHg 81%
    20:00 -2°C° 0 mm 3 m/S 767 mmHg 83%
    21:00 -4°C° 0 mm 3 m/S 767 mmHg 84%
    22:00 -4°C° 0 mm 3 m/S 768 mmHg 86%
    23:00 -4°C° 0 mm 3 m/S 768 mmHg 86%

    Morgen, 21 Februar, Mittwoch

    Zeit Temperatur Niederschläge Wind Luftdruck Luftfeuchtigkeit
    00:00 -3°C° 0 mm 2 m/S 768 mmHg 86%
    01:00 -3°C° 0 mm 2 m/S 768 mmHg 87%
    02:00 -3°C° 0 mm 2 m/S 768 mmHg 86%
    03:00 -3°C° 0 mm 2 m/S 768 mmHg 86%
    04:00 -3°C° 0 mm 2 m/S 768 mmHg 86%
    05:00 -3°C° 0 mm 2 m/S 768 mmHg 85%
    06:00 -1°C° 0 mm 1 m/S 768 mmHg 85%
    07:00 -1°C° 0 mm 1 m/S 769 mmHg 84%
    08:00 0°C° 0 mm 1 m/S 769 mmHg 78%
    09:00 +1°C° 0 mm 1 m/S 769 mmHg 72%
    10:00 +1°C° 0 mm 2 m/S 769 mmHg 65%
    11:00 +2°C° 0 mm 2 m/S 769 mmHg 62%
    12:00 +2°C° 0 mm 2 m/S 769 mmHg 59%
    13:00 +3°C° 0 mm 2 m/S 769 mmHg 56%
    14:00 +3°C° 0 mm 2 m/S 769 mmHg 57%
    15:00 +3°C° 0 mm 2 m/S 768 mmHg 59%
    16:00 +3°C° 0 mm 2 m/S 768 mmHg 60%
    17:00 +2°C° 0 mm 2 m/S 768 mmHg 66%
    18:00 -1°C° 0 mm 2 m/S 768 mmHg 73%
    19:00 -2°C° 0 mm 2 m/S 768 mmHg 79%
    20:00 -2°C° 0 mm 2 m/S 769 mmHg 81%
    21:00 -1°C° 0 mm 1 m/S 769 mmHg 82%
    22:00 -1°C° 0 mm 1 m/S 769 mmHg 84%
    23:00 -1°C° 0 mm 1 m/S 769 mmHg 84%

    übermorgen, 22 Februar, Donnerstag

    Zeit Temperatur Niederschläge Wind Luftdruck Luftfeuchtigkeit
    00:00 -1°C° 0 mm 1 m/S 769 mmHg 84%
    01:00 -1°C° 0 mm 1 m/S 769 mmHg 84%
    02:00 -1°C° 0 mm 1 m/S 769 mmHg 84%
    03:00 -1°C° 0 mm 1 m/S 769 mmHg 83%
    04:00 -2°C° 0 mm 1 m/S 769 mmHg 83%
    05:00 -1°C° 0 mm 1 m/S 769 mmHg 82%
    06:00 -1°C° 0 mm 1 m/S 769 mmHg 81%
    07:00 -1°C° 0 mm 1 m/S 769 mmHg 81%
    08:00 0°C° 0 mm 1 m/S 769 mmHg 76%
    09:00 +1°C° 0 mm 1 m/S 769 mmHg 71%
    10:00 +2°C° 0 mm 1 m/S 769 mmHg 66%
    11:00 +2°C° 0 mm 2 m/S 769 mmHg 65%
    12:00 +2°C° 0 mm 2 m/S 769 mmHg 65%
    13:00 +2°C° 0 mm 3 m/S 769 mmHg 64%
    14:00 +2°C° 0 mm 3 m/S 769 mmHg 65%
    15:00 0°C° 0 mm 4 m/S 769 mmHg 67%
    16:00 0°C° 0 mm 4 m/S 769 mmHg 68%
    17:00 -1°C° 0 mm 4 m/S 769 mmHg 73%
    18:00 -3°C° 0 mm 4 m/S 769 mmHg 78%
    19:00 -4°C° 0 mm 3 m/S 769 mmHg 83%
    20:00 -4°C° 0 mm 3 m/S 769 mmHg 83%
    21:00 -5°C° 0 mm 3 m/S 769 mmHg 82%
    22:00 -5°C° 0 mm 3 m/S 770 mmHg 82%
    23:00 -5°C° 0 mm 3 m/S 770 mmHg 82%

    23 Februar, Freitag

    Zeit Temperatur Niederschläge Wind Luftdruck Luftfeuchtigkeit
    00:00 -5°C° 0 mm 3 m/S 770 mmHg 82%
    01:00 -5°C° 0 mm 3 m/S 770 mmHg 82%
    02:00 -5°C° 0 mm 3 m/S 770 mmHg 82%
    03:00 -5°C° 0 mm 3 m/S 770 mmHg 82%
    04:00 -5°C° 0 mm 3 m/S 770 mmHg 83%
    05:00 -4°C° 0 mm 2 m/S 770 mmHg 82%
    06:00 -4°C° 0 mm 2 m/S 770 mmHg 82%
    07:00 -4°C° 0 mm 2 m/S 770 mmHg 82%
    08:00 -4°C° 0 mm 3 m/S 770 mmHg 75%
    09:00 -2°C° 0 mm 3 m/S 771 mmHg 69%
    10:00 -1°C° 0 mm 3 m/S 771 mmHg 63%
    11:00 -1°C° 0 mm 3 m/S 771 mmHg 62%
    12:00 0°C° 0 mm 3 m/S 771 mmHg 60%
    13:00 +1°C° 0 mm 3 m/S 771 mmHg 59%
    14:00 +1°C° 0 mm 3 m/S 771 mmHg 60%
    15:00 +1°C° 0 mm 3 m/S 771 mmHg 62%
    16:00 0°C° 0 mm 3 m/S 771 mmHg 64%
    17:00 0°C° 0 mm 3 m/S 771 mmHg 69%
    18:00 -1°C° 0 mm 3 m/S 771 mmHg 75%
    19:00 -2°C° 0 mm 3 m/S 771 mmHg 80%
    20:00 -4°C° 0 mm 3 m/S 772 mmHg 82%
    21:00 -4°C° 0 mm 3 m/S 772 mmHg 84%
    22:00 -5°C° 0 mm 3 m/S 772 mmHg 86%
    23:00 -5°C° 0 mm 3 m/S 773 mmHg 86%

    24 Februar, Samstag

    Zeit Temperatur Niederschläge Wind Luftdruck Luftfeuchtigkeit
    00:00 -5°C° 0 mm 3 m/S 773 mmHg 85%
    01:00 -5°C° 0 mm 3 m/S 773 mmHg 84%
    02:00 -5°C° 0 mm 4 m/S 773 mmHg 83%
    03:00 -5°C° 0 mm 4 m/S 773 mmHg 82%
    04:00 -5°C° 0 mm 4 m/S 774 mmHg 80%
    05:00 -5°C° 0 mm 4 m/S 774 mmHg 77%
    06:00 -6°C° 0 mm 5 m/S 774 mmHg 74%
    07:00 -6°C° 0 mm 5 m/S 774 mmHg 70%
    08:00 -5°C° 0 mm 5 m/S 775 mmHg 65%
    09:00 -5°C° 0 mm 6 m/S 775 mmHg 59%
    10:00 -4°C° 0 mm 7 m/S 775 mmHg 54%
    11:00 -4°C° 0 mm 7 m/S 775 mmHg 52%
    12:00 -4°C° 0 mm 6 m/S 775 mmHg 50%
    13:00 -3°C° 0 mm 6 m/S 775 mmHg 48%
    14:00 -4°C° 0 mm 6 m/S 775 mmHg 49%
    15:00 -4°C° 0 mm 7 m/S 775 mmHg 51%
    16:00 -4°C° 0 mm 7 m/S 775 mmHg 52%
    17:00 -5°C° 0 mm 6 m/S 775 mmHg 56%
    18:00 -6°C° 0 mm 6 m/S 775 mmHg 61%
    19:00 -7°C° 0 mm 5 m/S 775 mmHg 66%
    20:00 -7°C° 0 mm 5 m/S 775 mmHg 66%
    21:00 -7°C° 0 mm 5 m/S 775 mmHg 67%
    22:00 -7°C° 0 mm 5 m/S 776 mmHg 68%
    23:00 -7°C° 0,1 mm 5 m/S 775 mmHg 68%

    25 Februar, Sonntag

    Zeit Temperatur Niederschläge Wind Luftdruck Luftfeuchtigkeit
    00:00 -7°C° 0,1 mm 4 m/S 775 mmHg 69%
    01:00 -7°C° 0,1 mm 4 m/S 775 mmHg 69%
    02:00 -7°C° 0,1 mm 4 m/S 775 mmHg 69%
    03:00 -7°C° 0,1 mm 4 m/S 775 mmHg 69%
    04:00 -7°C° 0,1 mm 4 m/S 775 mmHg 70%
    05:00 -7°C° 0,1 mm 4 m/S 775 mmHg 71%
    06:00 -7°C° 0,1 mm 4 m/S 775 mmHg 72%
    07:00 -8°C° 0,1 mm 4 m/S 775 mmHg 73%
    08:00 -7°C° 0,1 mm 5 m/S 775 mmHg 70%
    09:00 -8°C° 0,1 mm 6 m/S 775 mmHg 68%
    10:00 -6°C° 0,1 mm 6 m/S 775 mmHg 65%
    11:00 -6°C° 0,1 mm 6 m/S 775 mmHg 63%
    12:00 -6°C° 0,1 mm 6 m/S 774 mmHg 62%
    13:00 -6°C° 0,1 mm 6 m/S 774 mmHg 60%
    14:00 -7°C° 0,1 mm 7 m/S 774 mmHg 61%
    15:00 -7°C° 0,1 mm 7 m/S 774 mmHg 62%
    16:00 -7°C° 0,1 mm 8 m/S 774 mmHg 63%
    17:00 -8°C° 0,1 mm 7 m/S 774 mmHg 66%
    18:00 -8°C° 0,1 mm 7 m/S 774 mmHg 69%
    19:00 -9°C° 0,1 mm 7 m/S 774 mmHg 72%
    20:00 -9°C° 0,1 mm 7 m/S 774 mmHg 72%
    21:00 -9°C° 0,1 mm 6 m/S 774 mmHg 72%
    22:00 -9°C° 0,1 mm 6 m/S 774 mmHg 72%
    23:00 -10°C° 0,1 mm 6 m/S 774 mmHg 72%
    Mehr zeigen